Location: The Stocker AstroScience Center
(25.7579°N, 80.3725°W)
Time: 09:32:25
(UTC-04:00)

ISS - All Passes

Search period start: 27 July 2016 00:00
Search period end: 06 August 2016 00:00
Orbit: 401 x 404 km, 51.6° (Epoch: 27 July)

Date Brightness Start Highest point End Pass type
(mag) Time Alt. Az. Time Alt. Az. Time Alt. Az.
27 Jul - 05:36:40 10° NNW 05:39:49 46° NE 05:42:56 10° ESE visible
27 Jul - 20:33:36 10° SW 20:36:49 72° SE 20:40:03 10° NE visible
28 Jul - 04:44:17 10° N 04:46:49 20° NE 04:49:20 10° E visible
28 Jul - 06:20:43 10° WNW 06:23:07 19° SW 06:25:30 10° S visible
28 Jul - 19:41:11 10° S 19:43:59 27° SE 19:46:47 10° ENE daylight
28 Jul - 21:18:20 10° W 21:20:24 16° NW 21:22:27 10° N visible
29 Jul - 03:53:08 10° NNE 03:53:43 10° NE 03:54:16 10° NE visible
29 Jul - 05:27:10 10° NW 05:30:18 48° SW 05:33:26 10° SSE visible
29 Jul - 18:50:06 10° SE 18:51:13 11° SE 18:52:20 10° ESE daylight
29 Jul - 20:24:23 10° WSW 20:27:21 32° NW 20:30:19 10° NNE daylight
30 Jul - 04:34:12 10° NW 04:37:25 61° NE 04:40:37 10° SE night (unlit)
30 Jul - 19:31:09 10° SW 19:34:24 85° NW 19:37:39 10° NE daylight
31 Jul - 03:41:40 10° NNW 03:44:26 25° NE 03:47:11 10° ESE night (unlit)
31 Jul - 05:18:41 10° W 05:20:39 15° SW 05:22:37 10° SSW night (unlit)
31 Jul - 18:38:33 10° SSW 18:41:32 34° SE 18:44:32 10° ENE daylight
31 Jul - 20:16:26 10° WNW 20:18:01 13° NW 20:19:37 10° N daylight
01 Aug - 02:49:51 10° NNE 02:51:21 12° NE 02:52:50 10° ENE night (unlit)
01 Aug - 04:24:50 10° WNW 04:27:51 36° SW 04:30:52 10° SSE night (unlit)
01 Aug - 17:46:52 10° SSE 17:48:44 14° SE 17:50:37 10° E daylight
01 Aug - 19:22:09 10° WSW 19:24:57 26° NW 19:27:45 10° NNE daylight
02 Aug - 03:31:44 10° NW 03:34:59 81° NE 03:38:13 10° SE night (unlit)
02 Aug - 18:28:45 10° SW 18:31:58 64° NW 18:35:11 10° NE daylight
03 Aug - 02:39:04 10° NNW 02:42:01 31° NE 02:44:57 10° ESE night (unlit)
03 Aug - 04:16:52 10° W 04:18:10 12° SW 04:19:28 10° SSW night (unlit)
03 Aug - 17:35:57 10° SSW 17:39:03 45° SE 17:42:11 10° NE daylight
03 Aug - 19:14:48 10° NW 19:15:38 11° NW 19:16:29 10° NNW daylight
04 Aug - 01:46:58 10° N 01:48:57 15° NE 01:50:55 10° ENE night (unlit)
04 Aug - 03:22:32 10° WNW 03:25:22 28° SW 03:28:12 10° S night (unlit)
04 Aug - 16:43:55 10° S 16:46:14 18° SE 16:48:34 10° E daylight
04 Aug - 18:19:57 10° W 18:22:31 21° NW 18:25:05 10° N daylight
05 Aug - 02:29:16 10° NW 02:32:31 77° SW 02:35:44 10° SE night (unlit)
05 Aug - 17:26:21 10° WSW 17:29:30 49° NW 17:32:40 10° NNE daylight
